GW6029 Weather Reports


time (UTC)temp
C
wind
direction
speed
KPH
gust
KPH
rain 1hr
cm
rain 24hr
cm
rain mn
cm
humidity
%
barometer
mb
20260504000058 22 105 0.0 0.0 0.00 0.00 0.00 40 1017.7
20260503235556 23 108 0.0 0.0 0.00 0.00 0.00 39 1017.8
20260503235053 23 5 1.6 4.8 0.00 0.00 0.00 36 1017.8
20260503234550 24 351 1.6 4.8 0.00 0.00 0.00 34 1017.7
20260503234048 24 312 3.2 3.2 0.00 0.00 0.00 34 1017.8
20260503233544 25 318 3.2 4.8 0.00 0.00 0.00 33 1017.5
20260503233040 25 329 1.6 4.8 0.00 0.00 0.00 33 1017.9
20260503232538 25 285 3.2 4.8 0.00 0.00 0.00 33 1017.7
20260503232035 25 249 1.6 4.8 0.00 0.00 0.00 32 1017.9
20260503231533 25 291 1.6 3.2 0.00 0.00 0.00 32 1017.9
20260503231029 26 43 0.0 4.8 0.00 0.00 0.00 32 1017.8
20260503230526 25 37 4.8 6.4 0.00 0.00 0.00 29 1017.9
20260503230024 25 59 3.2 3.2 0.00 0.00 0.00 30 1018.0
20260503225520 25 264 3.2 4.8 0.00 0.00 0.00 30 1017.9
20260503225015 25 281 3.2 4.8 0.00 0.00 0.00 31 1017.8
20260503224513 25 78 0.0 4.8 0.00 0.00 0.00 31 1017.9
20260503224011 25 205 4.8 14.5 0.00 0.00 0.00 30 1017.7
20260503223509 26 89 3.2 4.8 0.00 0.00 0.00 30 1017.7
20260503223004 26 244 3.2 3.2 0.00 0.00 0.00 29 1017.8
20260503222502 26 21 3.2 4.8 0.00 0.00 0.00 28 1017.8
20260503222000 25 315 0.0 4.8 0.00 0.00 0.00 33 1017.6
20260503221458 26 303 3.2 3.2 0.00 0.00 0.00 32 1017.9
20260503220955 26 323 3.2 6.4 0.00 0.00 0.00 29 1017.9
20260503220451 26 334 3.2 6.4 0.00 0.00 0.00 29 1017.9
20260503215948 26 2 1.6 3.2 0.00 0.00 0.00 31 1017.9
20260503215445 25 51 3.2 3.2 0.00 0.00 0.00 31 1017.8
20260503214943 25 272 3.2 9.7 0.00 0.00 0.00 30 1017.9
20260503214440 26 265 0.0 4.8 0.00 0.00 0.00 31 1018.0
20260503213937 26 242 1.6 6.4 0.00 0.00 0.00 32 1018.1
20260503213436 26 15 3.2 3.2 0.00 0.00 0.00 30 1018.0
20260503212931 26 281 3.2 6.4 0.00 0.00 0.00 32 1018.0
20260503212429 26 282 9.7 12.9 0.00 0.00 0.00 31 1017.9
20260503211926 26 102 1.6 4.8 0.00 0.00 0.00 31 1018.1
20260503211423 26 282 1.6 4.8 0.00 0.00 0.00 33 1018.1
20260503210918 26 273 4.8 9.7 0.00 0.00 0.00 31 1018.2
20260503210416 26 266 3.2 11.3 0.00 0.00 0.00 30 1018.3
20260503205910 26 283 6.4 6.4 0.00 0.00 0.00 31 1018.5
20260503205408 26 328 1.6 3.2 0.00 0.00 0.00 31 1018.4
20260503204903 26 344 3.2 9.7 0.00 0.00 0.00 30 1018.5
20260503204400 26 173 1.6 9.7 0.00 0.00 0.00 32 1018.7
20260503203858 26 307 4.8 11.3 0.00 0.00 0.00 29 1018.9
20260503203355 26 279 1.6 3.2 0.00 0.00 0.00 33 1018.8
20260503202852 26 99 0.0 4.8 0.00 0.00 0.00 32 1019.1
20260503202350 25 276 6.4 9.7 0.00 0.00 0.00 31 1019.0
20260503201849 25 85 0.0 6.4 0.00 0.00 0.00 30 1019.0
20260503201345 25 120 3.2 9.7 0.00 0.00 0.00 31 1019.0
20260503200843 26 301 4.8 6.4 0.00 0.00 0.00 32 1019.1
20260503200338 25 86 1.6 1.6 0.00 0.00 0.00 33 1018.9
20260503195836 25 294 6.4 9.7 0.00 0.00 0.00 34 1019.1
20260503195332 25 275 3.2 4.8 0.00 0.00 0.00 32 1019.3
20260503194830 25 181 1.6 6.4 0.00 0.00 0.00 33 1019.3
20260503194325 25 75 1.6 4.8 0.00 0.00 0.00 32 1019.5
20260503193822 26 106 3.2 4.8 0.00 0.00 0.00 33 1019.6
20260503193318 25 337 0.0 3.2 0.00 0.00 0.00 33 1019.7
20260503192814 26 98 3.2 3.2 0.00 0.00 0.00 33 1019.8
20260503192309 25 114 3.2 9.7 0.00 0.00 0.00 31 1019.8
20260503191806 25 117 1.6 4.8 0.00 0.00 0.00 32 1019.8
20260503191303 25 291 1.6 6.4 0.00 0.00 0.00 34 1020.0
20260503190800 25 260 3.2 6.4 0.00 0.00 0.00 31 1020.0
20260503190256 25 344 6.4 6.4 0.00 0.00 0.00 32 1020.2
20260503185754 25 295 1.6 6.4 0.00 0.00 0.00 31 1020.3
20260503185249 25 138 3.2 9.7 0.00 0.00 0.00 30 1020.5
20260503184744 24 98 3.2 3.2 0.00 0.00 0.00 38 1020.3
20260503184241 24 351 1.6 6.4 0.00 0.00 0.00 32 1020.4
20260503183737 24 283 3.2 4.8 0.00 0.00 0.00 35 1020.7
20260503183235 24 233 3.2 9.7 0.00 0.00 0.00 31 1020.6
20260503182733 23 163 0.0 4.8 0.00 0.00 0.00 33 1020.8
20260503182231 25 101 1.6 3.2 0.00 0.00 0.00 30 1020.9
20260503181727 25 120 3.2 6.4 0.00 0.00 0.00 33 1020.9
20260503181225 25 282 4.8 4.8 0.00 0.00 0.00 30 1020.7
20260503180721 25 81 0.0 6.4 0.00 0.00 0.00 36 1020.9
20260503180220 25 339 3.2 6.4 0.00 0.00 0.00 31 1020.9
20260503175716 25 282 3.2 6.4 0.00 0.00 0.00 32 1020.8
20260503175214 25 318 3.2 4.8 0.00 0.00 0.00 32 1021.2
20260503174709 25 227 4.8 11.3 0.00 0.00 0.00 32 1021.0
20260503174207 25 266 1.6 3.2 0.00 0.00 0.00 31 1020.9
20260503173702 25 356 1.6 3.2 0.00 0.00 0.00 37 1021.1
20260503173158 24 262 4.8 4.8 0.00 0.00 0.00 35 1021.3
20260503172655 24 311 1.6 9.7 0.00 0.00 0.00 33 1021.0
20260503172153 24 159 0.0 4.8 0.00 0.00 0.00 35 1021.3
20260503171649 23 229 3.2 12.9 0.00 0.00 0.00 32 1021.1
20260503171146 23 90 3.2 11.3 0.00 0.00 0.00 34 1021.3
20260503170643 23 73 0.0 6.4 0.00 0.00 0.00 38 1021.3
20260503170140 24 94 1.6 6.4 0.00 0.00 0.00 30 1021.4
20260503150531 23 348 6.4 6.4 0.00 0.00 0.00 37 1022.2
20260503130921 16 39 0.0 1.6 0.00 0.00 0.00 60 1021.7
20260503130419 15 88 0.0 4.8 0.00 0.00 0.00 64 1021.3
20260503110823 8 78 0.0 0.0 0.00 0.00 0.00 93 1020.3
20260503110319 8 78 0.0 0.0 0.00 0.00 0.00 93 1020.4
20260503100245 8 54 0.0 0.0 0.00 0.00 0.00 91 1020.1
20260503090206 8 89 0.0 0.0 0.00 0.00 0.00 88 1019.7
20260503081636 10 62 0.0 0.0 0.00 0.00 0.00 82 1019.4
20260503081132 10 63 0.0 0.0 0.00 0.00 0.00 82 1019.6
20260503080628 10 62 0.0 0.0 0.00 0.00 0.00 81 1019.4
20260503080126 10 62 0.0 0.0 0.00 0.00 0.00 80 1019.5
20260503072602 11 84 0.0 0.0 0.00 0.00 0.00 77 1019.1
20260503072100 11 56 0.0 0.0 0.00 0.00 0.00 76 1019.1
20260503071556 11 56 0.0 0.0 0.00 0.00 0.00 76 1019.0
20260503071053 11 47 0.0 0.0 0.00 0.00 0.00 77 1018.9
20260503070549 11 78 0.0 0.0 0.00 0.00 0.00 77 1019.2
20260503055009 11 54 0.0 0.0 0.00 0.00 0.00 80 1019.0
20260503054504 11 62 0.0 0.0 0.00 0.00 0.00 80 1019.0
20260503054002 11 61 0.0 0.0 0.00 0.00 0.00 80 1018.9
20260503053500 11 61 0.0 0.0 0.00 0.00 0.00 81 1018.9
20260503052956 11 61 0.0 0.0 0.00 0.00 0.00 82 1019.0
20260503052454 11 60 0.0 0.0 0.00 0.00 0.00 82 1019.1
20260503051950 11 70 0.0 0.0 0.00 0.00 0.00 82 1018.8
20260503051446 11 50 0.0 0.0 0.00 0.00 0.00 81 1018.8
20260503050943 11 61 0.0 0.0 0.00 0.00 0.00 80 1018.8
20260503050439 11 61 0.0 0.0 0.00 0.00 0.00 80 1018.8
20260503045937 12 61 0.0 0.0 0.00 1.65 1.65 80 1018.9
20260503045435 12 60 0.0 0.0 0.00 1.65 1.65 80 1018.8
20260503044931 12 55 0.0 0.0 0.00 1.65 1.65 79 1018.5
20260503044428 12 56 0.0 0.0 0.00 1.65 1.65 79 1018.6
20260503043925 12 56 0.0 0.0 0.00 1.65 1.65 77 1018.6
20260503043421 12 55 0.0 0.0 0.00 1.65 1.65 77 1018.6
20260503042918 12 55 0.0 0.0 0.00 1.65 1.65 77 1018.7
20260503042415 12 55 0.0 0.0 0.00 1.65 1.65 78 1018.7
20260503041911 12 46 0.0 0.0 0.00 1.65 1.65 78 1018.6
20260503041408 12 46 0.0 0.0 0.00 1.65 1.65 78 1018.6
20260503040906 12 43 0.0 0.0 0.00 1.65 1.65 78 1018.6
20260503040403 12 58 0.0 0.0 0.00 1.65 1.65 78 1018.4
20260503035900 12 53 0.0 0.0 0.00 1.65 1.65 78 1018.4
20260503035357 12 58 0.0 0.0 0.00 1.65 1.65 78 1018.6
20260503034854 12 58 0.0 0.0 0.00 1.65 1.65 78 1018.4
20260503034351 12 58 0.0 0.0 0.00 1.65 1.65 77 1018.5
20260503033849 12 58 0.0 0.0 0.00 1.65 1.65 77 1018.4
20260503033346 12 58 0.0 0.0 0.00 1.65 1.65 77 1018.4
20260503032844 12 58 0.0 0.0 0.00 1.65 1.65 76 1018.2
20260503032343 12 58 0.0 0.0 0.00 1.65 1.65 75 1018.3
20260503031840 12 57 0.0 0.0 0.00 1.65 1.65 75 1018.1
20260503031337 12 59 0.0 0.0 0.00 1.65 1.65 74 1018.0
20260503030833 13 59 0.0 0.0 0.00 1.65 1.65 73 1018.1
20260503030330 13 59 0.0 0.0 0.00 1.65 1.65 74 1018.0
20260503025827 13 59 0.0 0.0 0.00 1.65 1.65 73 1017.8
20260503025324 13 59 0.0 0.0 0.00 1.65 1.65 72 1017.9
20260503024821 13 59 0.0 0.0 0.00 1.65 1.65 71 1017.9
20260503024318 13 55 0.0 0.0 0.00 1.65 1.65 70 1018.0
20260503023815 14 56 0.0 0.0 0.00 1.65 1.65 69 1017.8
20260503023312 14 56 0.0 0.0 0.00 1.65 1.65 68 1017.8
20260503022808 14 60 0.0 0.0 0.00 1.65 1.65 68 1017.8
20260503022308 14 60 0.0 0.0 0.00 1.65 1.65 66 1017.6
20260503021805 15 60 0.0 0.0 0.00 1.65 1.65 67 1017.6
20260503021301 15 60 0.0 0.0 0.00 1.65 1.65 65 1017.6
20260503020759 15 60 0.0 0.0 0.00 1.65 1.65 62 1017.5
20260503020257 15 60 0.0 0.0 0.00 1.65 1.65 61 1017.4
20260503015752 16 60 0.0 0.0 0.00 1.65 1.65 57 1017.4
20260503015250 16 60 0.0 0.0 0.00 1.65 1.65 55 1017.1
20260503014745 16 60 0.0 0.0 0.00 1.65 1.65 54 1017.2
20260503014244 16 59 0.0 0.0 0.00 1.65 1.65 53 1017.1
20260503013740 17 46 1.6 1.6 0.00 1.65 1.65 52 1017.1
20260503013238 17 21 1.6 3.2 0.00 1.65 1.65 51 1016.8
20260503012735 17 98 0.0 1.6 0.00 1.65 1.65 51 1017.1
20260503012232 17 15 1.6 3.2 0.00 1.65 1.65 50 1016.8
20260503011729 17 17 0.0 3.2 0.00 1.65 1.65 50 1016.8
20260503011226 17 43 1.6 4.8 0.00 1.65 1.65 49 1016.6
20260503010722 17 339 0.0 3.2 0.00 1.65 1.65 48 1016.4
20260503010219 18 322 1.6 1.6 0.00 1.65 1.65 48 1016.3
20260503005717 18 22 3.2 6.4 0.00 1.65 1.65 47 1016.2
20260503005214 18 74 1.6 3.2 0.00 1.65 1.65 46 1016.3
20260503004710 18 50 0.0 3.2 0.00 1.65 1.65 46 1016.1
20260503004209 18 34 3.2 6.4 0.00 1.65 1.65 45 1016.0
20260503003705 18 309 3.2 6.4 0.00 1.65 1.65 45 1016.0
20260503003202 19 247 3.2 6.4 0.00 1.65 1.65 44 1015.8
20260503002659 19 255 3.2 3.2 0.00 1.65 1.65 44 1015.6
20260503002155 19 46 0.0 3.2 0.00 1.65 1.65 43 1015.5
20260503001651 20 14 3.2 6.4 0.00 1.65 1.65 42 1015.5
20260503001148 20 273 4.8 9.7 0.00 1.65 1.65 41 1015.4
20260503000646 20 42 3.2 11.3 0.00 1.65 1.65 41 1015.3